Location: Ergnies
(50.0854°N, 2.0375°E)
Time: 14:30:04
(UTC+00:00)

Cosmos 381 Rocket - Visible Passes

Search period start: 19 April 2026 00:00
Search period end: 29 April 2026 00:00
Orbit: 956 x 993 km, 74.0° (Epoch: 19 April)

Date Brightness Start Highest point End Pass type
(mag) Time Alt. Az. Time Alt. Az. Time Alt. Az.
19 Apr 5.6 19:53:08 10° N 19:58:37 30° NE 20:03:26 13° ESE visible
19 Apr 4.7 21:39:27 10° NNW 21:45:41 66° WSW 21:48:05 39° S visible
19 Apr 6.7 23:28:49 10° WNW 23:31:02 12° W 23:32:44 11° WSW visible
20 Apr 5.0 20:18:11 10° NNW 20:24:15 47° ENE 20:28:31 20° ESE visible
20 Apr 5.5 22:05:00 10° NW 22:10:44 38° WSW 22:13:09 28° SW visible
21 Apr 4.5 20:43:21 10° NNW 20:49:41 77° ENE 20:53:38 25° SSE visible
21 Apr 6.2 22:30:56 10° NW 22:35:36 22° W 22:38:16 17° SW visible
22 Apr 5.6 19:22:21 10° N 19:27:52 31° NE 19:33:23 10° ESE visible
22 Apr 4.8 21:08:41 10° NNW 21:14:55 65° WSW 21:18:46 25° S visible
22 Apr 6.8 22:58:07 10° WNW 23:00:15 12° W 23:02:24 10° WSW visible
23 Apr 5.0 19:47:24 10° NNW 19:53:30 48° ENE 19:59:18 11° SE visible
23 Apr 5.6 21:34:13 10° NW 21:39:58 38° WSW 21:43:57 19° SSW visible
24 Apr 4.5 20:12:34 10° NNW 20:18:56 78° ENE 20:24:31 14° SSE visible
24 Apr 6.4 22:00:11 10° NW 22:04:49 22° W 22:09:10 11° SW visible
25 Apr 4.8 20:37:55 10° NNW 20:44:09 64° WSW 20:49:47 13° S visible
25 Apr 6.9 22:27:25 10° WNW 22:29:28 12° W 22:31:32 10° WSW visible
26 Apr 5.7 21:03:27 10° NW 21:09:11 37° W 21:14:56 10° SSW visible
27 Apr 4.6 19:41:48 10° NNW 19:48:09 79° ENE 19:54:32 10° SSE visible
27 Apr 6.5 21:29:25 10° NW 21:34:02 22° W 21:38:39 10° SW visible
28 Apr 4.9 20:07:08 10° NNW 20:13:23 63° WSW 20:19:39 10° S visible
28 Apr 7.0 21:56:43 10° WNW 21:58:40 12° W 22:00:39 10° WSW visible
